Location: Rounton
(54.4000°N, 1.3500°W)
Time: 22:48:48
(UTC+00:00)

Explorer 7 - Pass Details

Date: 03 December 2021
Orbit: 483 x 674 km, 50.3° (Epoch: 17 January)

Event Time Altitude Azimuth Distance (km) Brightness Sun altitude
Rises 10:07:25 0° 271° (W) 2,680 10.1 10.0°
Reaches altitude 10° 10:09:47 10° 263° (W) 1,758 9.3 10.2°
Maximum altitude 10:13:27 37° 196° (SSW) 803 8.5 10.4°
Drops below altitude 10° 10:16:58 10° 128° (SE) 1,685 10.6 10.6°
Sets 10:19:12 0° 120° (ESE) 2,552 11.1 10.7°
